Time,TemperatureF,DewpointF,PressureIn,WindDirection,WindDirectionDegrees,WindSpeedMPH,WindSpeedGustMPH,Humidity,HourlyPrecipIn,Conditions,Clouds,dailyrainin,SoftwareType,DateUTC
2013-04-21 00:01:00,28.9,17.6,30.38,North,354,4.3,7.2,62,0.00,,,0.00,WUHU21623XXSP,2013-04-21 04:01:00,
2013-04-21 00:02:00,28.7,17.4,30.38,North,0,6.5,7.2,62,0.00,,,0.00,WUHU21623XXSP,2013-04-21 04:02:00,
2013-04-21 00:07:00,28.6,17.7,30.39,North,0,4.9,6.9,63,0.00,,,0.00,WUHU21623XXSP,2013-04-21 04:07:00,
2013-04-21 00:12:00,28.6,18.0,30.39,North,359,4.3,9.2,64,0.00,,,0.00,WUHU21623XXSP,2013-04-21 04:12:00,
2013-04-21 00:17:00,28.6,18.4,30.39,NNW,337,5.8,9.2,65,0.00,,,0.00,WUHU21623XXSP,2013-04-21 04:17:00,
2013-04-21 00:22:00,28.6,18.4,30.39,North,353,2.8,7.8,65,0.00,,,0.00,WUHU21623XXSP,2013-04-21 04:22:00,
2013-04-21 00:27:00,28.4,18.5,30.39,North,353,4.2,9.2,66,0.00,,,0.00,WUHU21623XXSP,2013-04-21 04:27:00,
2013-04-21 00:32:00,28.6,18.7,30.40,NNW,337,5.8,9.2,66,0.00,,,0.00,WUHU21623XXSP,2013-04-21 04:32:00,
2013-04-21 00:37:00,28.6,18.7,30.39,North,355,3.1,7.8,66,0.00,,,0.00,WUHU21623XXSP,2013-04-21 04:37:00,
2013-04-21 00:42:00,28.7,18.8,30.39,NW,315,4.0,8.3,66,0.00,,,0.00,WUHU21623XXSP,2013-04-21 04:42:00,
2013-04-21 00:47:00,28.7,19.2,30.40,NNW,334,3.6,9.4,67,0.00,,,0.00,WUHU21623XXSP,2013-04-21 04:47:00,
2013-04-21 00:52:00,28.7,19.2,30.40,North,0,4.7,9.4,67,0.00,,,0.00,WUHU21623XXSP,2013-04-21 04:52:00,
2013-04-21 00:57:00,28.7,19.5,30.40,North,351,4.8,9.8,68,0.00,,,0.00,WUHU21623XXSP,2013-04-21 04:57:00,
2013-04-21 01:02:00,28.7,19.9,30.40,NNW,337,2.0,9.8,69,0.00,,,0.00,WUHU21623XXSP,2013-04-21 05:02:00,
2013-04-21 01:07:00,28.6,19.8,30.40,NNE,22,4.0,6.7,69,0.00,,,0.00,WUHU21623XXSP,2013-04-21 05:07:00,
2013-04-21 01:12:00,28.6,19.8,30.41,NNW,337,6.0,6.0,69,0.00,,,0.00,WUHU21623XXSP,2013-04-21 05:12:00,
2013-04-21 01:17:00,28.4,19.6,30.40,North,0,5.4,6.0,69,0.00,,,0.00,WUHU21623XXSP,2013-04-21 05:17:00,
2013-04-21 01:22:00,28.0,19.2,30.41,North,0,1.6,5.4,69,0.00,,,0.00,WUHU21623XXSP,2013-04-21 05:22:00,
2013-04-21 01:27:00,27.8,19.0,30.41,North,2,3.5,4.9,69,0.00,,,0.00,WUHU21623XXSP,2013-04-21 05:27:00,
2013-04-21 01:32:00,27.8,19.0,30.41,NNW,346,3.2,5.6,69,0.00,,,0.00,WUHU21623XXSP,2013-04-21 05:32:00,
2013-04-21 01:37:00,28.0,19.2,30.41,North,0,2.7,5.6,69,0.00,,,0.00,WUHU21623XXSP,2013-04-21 05:37:00,
2013-04-21 01:42:00,28.0,19.2,30.41,North,358,2.5,4.3,69,0.00,,,0.00,WUHU21623XXSP,2013-04-21 05:42:00,
2013-04-21 01:47:00,28.0,19.5,30.41,NNW,337,3.6,4.3,70,0.00,,,0.00,WUHU21623XXSP,2013-04-21 05:47:00,
2013-04-21 01:52:00,28.2,19.7,30.41,NNW,337,1.8,6.3,70,0.00,,,0.00,WUHU21623XXSP,2013-04-21 05:52:00,
2013-04-21 01:57:00,28.0,19.5,30.41,NNW,337,2.5,6.3,70,0.00,,,0.00,WUHU21623XXSP,2013-04-21 05:57:00,
2013-04-21 02:02:00,28.0,19.5,30.41,NNW,337,3.6,4.0,70,0.00,,,0.00,WUHU21623XXSP,2013-04-21 06:02:00,
2013-04-21 02:07:00,28.0,19.5,30.41,NNW,337,5.1,5.1,70,0.00,,,0.00,WUHU21623XXSP,2013-04-21 06:07:00,
2013-04-21 02:12:00,27.8,19.3,30.42,North,356,3.3,5.4,70,0.00,,,0.00,WUHU21623XXSP,2013-04-21 06:12:00,
2013-04-21 02:17:00,27.8,19.3,30.42,North,0,2.9,5.4,70,0.00,,,0.00,WUHU21623XXSP,2013-04-21 06:17:00,
2013-04-21 02:22:00,27.8,19.3,30.42,North,0,3.6,5.4,70,0.00,,,0.00,WUHU21623XXSP,2013-04-21 06:22:00,
2013-04-21 02:27:00,27.8,19.3,30.42,NNW,337,4.9,7.2,70,0.00,,,0.00,WUHU21623XXSP,2013-04-21 06:27:00,
2013-04-21 02:32:00,28.0,19.5,30.42,North,2,3.0,7.2,70,0.00,,,0.00,WUHU21623XXSP,2013-04-21 06:32:00,
2013-04-21 02:37:00,27.8,19.3,30.42,NNW,340,2.6,5.4,70,0.00,,,0.00,WUHU21623XXSP,2013-04-21 06:37:00,
2013-04-21 02:42:00,27.8,19.3,30.42,NNW,337,4.3,5.6,70,0.00,,,0.00,WUHU21623XXSP,2013-04-21 06:42:00,
2013-04-21 02:47:00,28.0,19.5,30.42,North,0,3.8,6.7,70,0.00,,,0.00,WUHU21623XXSP,2013-04-21 06:47:00,
2013-04-21 02:52:00,28.0,19.2,30.43,North,0,3.4,6.7,69,0.00,,,0.00,WUHU21623XXSP,2013-04-21 06:52:00,
2013-04-21 02:57:00,28.0,19.2,30.43,North,0,5.1,5.6,69,0.00,,,0.00,WUHU21623XXSP,2013-04-21 06:57:00,
2013-04-21 03:01:00,28.0,19.2,30.43,North,0,2.5,6.7,69,0.00,,,0.00,WUHU21623XXSP,2013-04-21 07:01:00,
2013-04-21 03:06:00,28.0,19.2,30.43,NNW,337,4.0,8.1,69,0.00,,,0.00,WUHU21623XXSP,2013-04-21 07:06:00,
2013-04-21 03:11:00,27.8,19.0,30.44,North,356,3.4,8.5,69,0.00,,,0.00,WUHU21623XXSP,2013-04-21 07:11:00,
2013-04-21 03:16:00,27.8,19.0,30.43,NNW,340,4.3,8.5,69,0.00,,,0.00,WUHU21623XXSP,2013-04-21 07:16:00,
2013-04-21 03:22:00,27.8,19.0,30.44,NNW,337,4.3,6.5,69,0.00,,,0.00,WUHU21623XXSP,2013-04-21 07:22:00,
2013-04-21 03:27:00,27.7,18.9,30.44,NNE,22,2.7,8.1,69,0.00,,,0.00,WUHU21623XXSP,2013-04-21 07:27:00,
2013-04-21 03:32:00,27.5,18.4,30.44,North,0,2.7,8.1,68,0.00,,,0.00,WUHU21623XXSP,2013-04-21 07:32:00,
2013-04-21 03:37:00,27.3,18.2,30.44,North,0,3.4,5.6,68,0.00,,,0.00,WUHU21623XXSP,2013-04-21 07:37:00,
2013-04-21 03:42:00,27.1,18.0,30.44,NNW,337,2.7,4.7,68,0.00,,,0.00,WUHU21623XXSP,2013-04-21 07:42:00,
2013-04-21 03:47:00,26.9,17.8,30.45,North,0,3.1,4.5,68,0.00,,,0.00,WUHU21623XXSP,2013-04-21 07:47:00,
2013-04-21 03:52:00,26.8,17.7,30.45,NNW,337,3.6,6.5,68,0.00,,,0.00,WUHU21623XXSP,2013-04-21 07:52:00,
2013-04-21 03:57:00,26.6,17.5,30.45,North,356,3.7,6.5,68,0.00,,,0.00,WUHU21623XXSP,2013-04-21 07:57:00,
2013-04-21 04:02:00,26.4,17.3,30.45,North,0,4.9,6.3,68,0.00,,,0.00,WUHU21623XXSP,2013-04-21 08:02:00,
2013-04-21 04:07:00,26.2,17.1,30.45,North,8,2.4,4.9,68,0.00,,,0.00,WUHU21623XXSP,2013-04-21 08:07:00,
2013-04-21 04:12:00,26.2,17.1,30.45,North,0,2.7,4.5,68,0.00,,,0.00,WUHU21623XXSP,2013-04-21 08:12:00,
2013-04-21 04:17:00,26.0,16.9,30.45,North,350,3.6,5.1,68,0.00,,,0.00,WUHU21623XXSP,2013-04-21 08:17:00,
2013-04-21 04:22:00,26.0,16.9,30.45,North,0,2.5,8.3,68,0.00,,,0.00,WUHU21623XXSP,2013-04-21 08:22:00,
2013-04-21 04:27:00,26.0,16.9,30.46,North,0,1.7,8.3,68,0.00,,,0.00,WUHU21623XXSP,2013-04-21 08:27:00,
2013-04-21 04:31:00,25.7,16.7,30.46,North,0,0.0,5.8,68,0.00,,,0.00,WUHU21623XXSP,2013-04-21 08:31:00,
2013-04-21 04:36:00,25.7,16.7,30.47,North,7,1.8,6.3,68,0.00,,,0.00,WUHU21623XXSP,2013-04-21 08:36:00,
2013-04-21 04:41:00,25.7,17.0,30.47,North,0,1.3,6.3,69,0.00,,,0.00,WUHU21623XXSP,2013-04-21 08:41:00,
2013-04-21 04:47:00,26.0,17.3,30.47,North,0,0.0,3.4,69,0.00,,,0.00,WUHU21623XXSP,2013-04-21 08:47:00,
2013-04-21 04:51:00,26.2,17.5,30.47,NNE,12,1.9,4.0,69,0.00,,,0.00,WUHU21623XXSP,2013-04-21 08:51:00,
2013-04-21 04:56:00,26.6,17.9,30.47,North,0,3.8,5.8,69,0.00,,,0.00,WUHU21623XXSP,2013-04-21 08:56:00,
2013-04-21 05:01:00,26.6,17.9,30.47,NNW,337,2.5,5.8,69,0.00,,,0.00,WUHU21623XXSP,2013-04-21 09:01:00,
2013-04-21 05:06:00,26.8,17.7,30.48,NNW,341,2.2,4.7,68,0.00,,,0.00,WUHU21623XXSP,2013-04-21 09:06:00,
2013-04-21 05:11:00,26.9,17.8,30.48,NNW,337,2.7,4.7,68,0.00,,,0.00,WUHU21623XXSP,2013-04-21 09:11:00,
2013-04-21 05:16:00,26.9,17.8,30.48,North,358,2.4,4.7,68,0.00,,,0.00,WUHU21623XXSP,2013-04-21 09:16:00,
2013-04-21 05:21:00,27.1,18.0,30.49,North,351,3.2,4.3,68,0.00,,,0.00,WUHU21623XXSP,2013-04-21 09:21:00,
2013-04-21 05:26:00,27.1,18.0,30.49,North,0,2.9,4.3,68,0.00,,,0.00,WUHU21623XXSP,2013-04-21 09:26:00,
2013-04-21 05:31:00,27.1,18.0,30.49,NNW,348,3.4,4.7,68,0.00,,,0.00,WUHU21623XXSP,2013-04-21 09:31:00,
2013-04-21 05:36:00,27.1,18.0,30.49,North,358,2.4,4.7,68,0.00,,,0.00,WUHU21623XXSP,2013-04-21 09:36:00,
2013-04-21 05:41:00,27.1,18.0,30.50,North,0,2.5,4.7,68,0.00,,,0.00,WUHU21623XXSP,2013-04-21 09:41:00,
2013-04-21 05:46:00,27.3,18.2,30.50,NNW,347,2.6,4.7,68,0.00,,,0.00,WUHU21623XXSP,2013-04-21 09:46:00,
2013-04-21 05:51:00,27.1,18.0,30.50,North,358,3.5,5.6,68,0.00,,,0.00,WUHU21623XXSP,2013-04-21 09:51:00,
2013-04-21 05:56:00,27.3,18.2,30.51,North,349,2.6,5.6,68,0.00,,,0.00,WUHU21623XXSP,2013-04-21 09:56:00,
2013-04-21 06:01:00,27.3,17.8,30.51,North,0,0.0,4.9,67,0.00,,,0.00,WUHU21623XXSP,2013-04-21 10:01:00,
2013-04-21 06:06:00,27.3,17.8,30.51,North,4,2.8,3.8,67,0.00,,,0.00,WUHU21623XXSP,2013-04-21 10:06:00,
2013-04-21 06:11:00,27.3,17.8,30.52,North,0,2.2,3.4,67,0.00,,,0.00,WUHU21623XXSP,2013-04-21 10:11:00,
2013-04-21 06:17:00,27.3,17.8,30.52,NNE,22,3.1,4.3,67,0.00,,,0.00,WUHU21623XXSP,2013-04-21 10:17:00,
2013-04-21 06:22:00,27.5,18.0,30.52,NNE,22,2.7,4.3,67,0.00,,,0.00,WUHU21623XXSP,2013-04-21 10:22:00,
2013-04-21 06:27:00,27.3,17.8,30.52,NNE,22,3.8,6.3,67,0.00,,,0.00,WUHU21623XXSP,2013-04-21 10:27:00,
2013-04-21 06:32:00,27.5,18.0,30.53,NNE,28,5.3,8.9,67,0.00,,,0.00,WUHU21623XXSP,2013-04-21 10:32:00,
2013-04-21 06:37:00,27.5,17.7,30.53,NNE,22,3.4,8.9,66,0.00,,,0.00,WUHU21623XXSP,2013-04-21 10:37:00,
2013-04-21 06:42:00,27.3,17.5,30.53,NNE,22,3.1,5.6,66,0.00,,,0.00,WUHU21623XXSP,2013-04-21 10:42:00,
2013-04-21 06:47:00,27.1,17.3,30.54,NNE,22,5.1,6.3,66,0.00,,,0.00,WUHU21623XXSP,2013-04-21 10:47:00,
2013-04-21 06:52:00,26.9,17.1,30.54,NNE,22,2.5,6.3,66,0.00,,,0.00,WUHU21623XXSP,2013-04-21 10:52:00,
2013-04-21 06:57:00,26.6,16.8,30.54,NNE,22,2.7,6.3,66,0.00,,,0.00,WUHU21623XXSP,2013-04-21 10:57:00,
2013-04-21 07:02:00,26.4,16.6,30.55,NNE,22,3.6,4.5,66,0.00,,,0.00,WUHU21623XXSP,2013-04-21 11:02:00,
2013-04-21 07:07:00,26.2,16.4,30.56,NNE,22,1.4,4.3,66,0.00,,,0.00,WUHU21623XXSP,2013-04-21 11:07:00,
2013-04-21 07:12:00,26.2,16.4,30.56,NNE,22,1.8,2.9,66,0.00,,,0.00,WUHU21623XXSP,2013-04-21 11:12:00,
2013-04-21 07:17:00,26.2,16.4,30.56,NNE,22,0.4,4.0,66,0.00,,,0.00,WUHU21623XXSP,2013-04-21 11:17:00,
2013-04-21 07:22:00,26.4,16.6,30.56,North,0,1.1,4.0,66,0.00,,,0.00,WUHU21623XXSP,2013-04-21 11:22:00,
2013-04-21 07:27:00,26.6,16.8,30.57,North,0,2.0,3.4,66,0.00,,,0.00,WUHU21623XXSP,2013-04-21 11:27:00,
2013-04-21 07:32:00,26.6,16.8,30.57,NNE,22,2.6,3.6,66,0.00,,,0.00,WUHU21623XXSP,2013-04-21 11:32:00,
2013-04-21 07:37:00,26.9,17.1,30.57,NE,45,2.7,3.8,66,0.00,,,0.00,WUHU21623XXSP,2013-04-21 11:37:00,
2013-04-21 07:42:00,27.1,17.3,30.57,NNE,22,3.4,3.8,66,0.00,,,0.00,WUHU21623XXSP,2013-04-21 11:42:00,
2013-04-21 07:47:00,27.3,17.1,30.57,North,0,3.6,3.6,65,0.00,,,0.00,WUHU21623XXSP,2013-04-21 11:47:00,
2013-04-21 07:52:00,27.7,17.5,30.57,NE,35,1.5,4.9,65,0.00,,,0.00,WUHU21623XXSP,2013-04-21 11:52:00,
2013-04-21 07:57:00,27.8,17.6,30.57,NNE,18,2.7,5.6,65,0.00,,,0.00,WUHU21623XXSP,2013-04-21 11:57:00,
2013-04-21 08:02:00,28.0,17.4,30.58,NNE,22,3.1,5.6,64,0.00,,,0.00,WUHU21623XXSP,2013-04-21 12:02:00,
2013-04-21 08:07:00,28.6,18.0,30.58,North,4,3.3,5.6,64,0.00,,,0.00,WUHU21623XXSP,2013-04-21 12:07:00,
2013-04-21 08:12:00,28.9,17.9,30.58,NNE,19,3.4,5.4,63,0.00,,,0.00,WUHU21623XXSP,2013-04-21 12:12:00,
2013-04-21 08:17:00,29.1,18.1,30.59,North,0,4.3,6.9,63,0.00,,,0.00,WUHU21623XXSP,2013-04-21 12:17:00,
2013-04-21 08:22:00,29.6,18.2,30.59,North,10,5.8,8.5,62,0.00,,,0.00,WUHU21623XXSP,2013-04-21 12:22:00,
2013-04-21 08:27:00,30.0,18.6,30.59,NNE,28,3.3,8.5,62,0.00,,,0.00,WUHU21623XXSP,2013-04-21 12:27:00,
2013-04-21 08:32:00,30.4,18.6,30.59,North,9,4.0,8.1,61,0.00,,,0.00,WUHU21623XXSP,2013-04-21 12:32:00,
2013-04-21 08:37:00,30.7,18.5,30.59,NNW,337,3.8,9.4,60,0.00,,,0.00,WUHU21623XXSP,2013-04-21 12:37:00,
2013-04-21 08:42:00,30.7,18.1,30.60,NE,34,4.8,9.4,59,0.00,,,0.00,WUHU21623XXSP,2013-04-21 12:42:00,
2013-04-21 08:47:00,31.3,18.3,30.59,North,350,5.7,9.8,58,0.00,,,0.00,WUHU21623XXSP,2013-04-21 12:47:00,
2013-04-21 08:52:00,31.6,18.1,30.60,North,0,4.0,9.8,57,0.00,,,0.00,WUHU21623XXSP,2013-04-21 12:52:00,
2013-04-21 08:57:00,32.2,18.7,30.60,NNW,337,2.9,6.3,57,0.00,,,0.00,WUHU21623XXSP,2013-04-21 12:57:00,
2013-04-21 09:02:00,32.3,18.4,30.60,NNW,337,2.7,6.7,56,0.00,,,0.00,WUHU21623XXSP,2013-04-21 13:02:00,
2013-04-21 09:07:00,33.2,18.8,30.61,NE,49,3.8,6.7,55,0.00,,,0.00,WUHU21623XXSP,2013-04-21 13:07:00,
2013-04-21 09:12:00,34.1,19.6,30.61,NE,45,5.4,7.8,55,0.00,,,0.00,WUHU21623XXSP,2013-04-21 13:12:00,
2013-04-21 09:17:00,34.5,19.6,30.61,NE,48,2.3,7.8,54,0.00,,,0.00,WUHU21623XXSP,2013-04-21 13:17:00,
2013-04-21 09:22:00,34.7,19.3,30.61,NNW,337,3.1,6.0,53,0.00,,,0.00,WUHU21623XXSP,2013-04-21 13:22:00,
2013-04-21 09:27:00,35.0,19.1,30.61,NNW,346,4.3,6.9,52,0.00,,,0.00,WUHU21623XXSP,2013-04-21 13:27:00,
2013-04-21 09:32:00,35.6,19.2,30.61,NW,325,3.5,6.9,51,0.00,,,0.00,WUHU21623XXSP,2013-04-21 13:32:00,
2013-04-21 09:37:00,35.9,19.0,30.62,NW,316,2.9,6.5,50,0.00,,,0.00,WUHU21623XXSP,2013-04-21 13:37:00,
2013-04-21 09:42:00,35.2,17.9,30.62,North,0,2.0,6.0,49,0.00,,,0.00,WUHU21623XXSP,2013-04-21 13:42:00,
2013-04-21 09:47:00,34.0,16.8,30.62,North,357,3.9,6.3,49,0.00,,,0.00,WUHU21623XXSP,2013-04-21 13:47:00,
2013-04-21 09:52:00,33.8,17.1,30.62,North,354,3.4,7.4,50,0.00,,,0.00,WUHU21623XXSP,2013-04-21 13:52:00,
2013-04-21 09:57:00,34.1,17.3,30.62,North,353,3.8,9.2,50,0.00,,,0.00,WUHU21623XXSP,2013-04-21 13:57:00,
2013-04-21 10:02:00,34.7,17.9,30.62,North,10,3.5,9.2,50,0.00,,,0.00,WUHU21623XXSP,2013-04-21 14:02:00,
2013-04-21 10:07:00,35.9,18.5,30.62,NE,45,3.4,6.7,49,0.00,,,0.00,WUHU21623XXSP,2013-04-21 14:07:00,
2013-04-21 10:12:00,36.1,18.2,30.63,NNW,334,5.9,9.2,48,0.00,,,0.00,WUHU21623XXSP,2013-04-21 14:12:00,
2013-04-21 10:17:00,35.2,16.9,30.63,NNW,343,5.0,9.2,47,0.00,,,0.00,WUHU21623XXSP,2013-04-21 14:17:00,
2013-04-21 10:22:00,34.3,16.0,30.63,NNE,15,3.3,6.7,47,0.00,,,0.00,WUHU21623XXSP,2013-04-21 14:22:00,
2013-04-21 10:27:00,34.1,16.4,30.63,North,10,3.5,6.9,48,0.00,,,0.00,WUHU21623XXSP,2013-04-21 14:27:00,
2013-04-21 10:32:00,34.7,16.9,30.64,North,358,3.4,7.2,48,0.00,,,0.00,WUHU21623XXSP,2013-04-21 14:32:00,
2013-04-21 10:37:00,35.4,18.1,30.64,North,6,3.6,7.2,49,0.00,,,0.00,WUHU21623XXSP,2013-04-21 14:37:00,
2013-04-21 10:42:00,36.3,18.9,30.64,NNW,337,2.7,6.9,49,0.00,,,0.00,WUHU21623XXSP,2013-04-21 14:42:00,
2013-04-21 10:47:00,37.9,20.4,30.64,North,0,4.3,6.3,49,0.00,,,0.00,WUHU21623XXSP,2013-04-21 14:47:00,
2013-04-21 10:52:00,38.3,19.2,30.64,NW,315,4.7,8.1,46,0.00,,,0.00,WUHU21623XXSP,2013-04-21 14:52:00,
2013-04-21 10:57:00,37.7,18.7,30.64,NNW,336,3.9,8.1,46,0.00,,,0.00,WUHU21623XXSP,2013-04-21 14:57:00,
2013-04-21 11:02:00,37.6,18.6,30.64,North,0,3.1,7.6,46,0.00,,,0.00,WUHU21623XXSP,2013-04-21 15:02:00,
2013-04-21 11:07:00,36.8,17.3,30.65,North,0,2.4,6.0,45,0.00,,,0.00,WUHU21623XXSP,2013-04-21 15:07:00,
2013-04-21 11:12:00,36.5,17.6,30.65,NNE,22,5.6,8.3,46,0.00,,,0.00,WUHU21623XXSP,2013-04-21 15:12:00,
2013-04-21 11:17:00,36.8,17.8,30.65,NNW,337,7.6,9.4,46,0.00,,,0.00,WUHU21623XXSP,2013-04-21 15:17:00,
2013-04-21 11:22:00,37.0,17.5,30.65,NNW,339,4.0,9.4,45,0.00,,,0.00,WUHU21623XXSP,2013-04-21 15:22:00,
2013-04-21 11:27:00,37.4,17.9,30.65,North,1,2.9,8.3,45,0.00,,,0.00,WUHU21623XXSP,2013-04-21 15:27:00,
2013-04-21 11:32:00,37.9,19.4,30.64,SW,224,1.4,7.6,47,0.00,,,0.00,WUHU21623XXSP,2013-04-21 15:32:00,
2013-04-21 11:37:00,38.5,18.9,30.64,NNW,344,4.8,8.1,45,0.00,,,0.00,WUHU21623XXSP,2013-04-21 15:37:00,
2013-04-21 11:42:00,37.7,18.1,30.64,NNW,345,3.3,8.1,45,0.00,,,0.00,WUHU21623XXSP,2013-04-21 15:42:00,
2013-04-21 11:47:00,38.5,18.9,30.65,NNE,22,5.4,7.8,45,0.00,,,0.00,WUHU21623XXSP,2013-04-21 15:47:00,
2013-04-21 11:52:00,38.3,18.1,30.65,NE,45,4.5,7.6,44,0.00,,,0.00,WUHU21623XXSP,2013-04-21 15:52:00,
2013-04-21 11:57:00,37.9,18.3,30.64,North,0,5.1,7.4,45,0.00,,,0.00,WUHU21623XXSP,2013-04-21 15:57:00,
2013-04-21 12:02:00,38.3,18.7,30.64,North,7,3.1,7.4,45,0.00,,,0.00,WUHU21623XXSP,2013-04-21 16:02:00,
2013-04-21 12:07:00,38.8,19.1,30.64,NNW,342,5.2,8.5,45,0.00,,,0.00,WUHU21623XXSP,2013-04-21 16:07:00,
2013-04-21 12:12:00,39.4,19.7,30.64,NNE,22,8.1,8.5,45,0.00,,,0.00,WUHU21623XXSP,2013-04-21 16:12:00,
2013-04-21 12:17:00,39.5,19.2,30.64,NNW,345,4.4,12.1,44,0.00,,,0.00,WUHU21623XXSP,2013-04-21 16:17:00,
2013-04-21 12:22:00,39.4,19.1,30.64,NNW,341,4.8,12.1,44,0.00,,,0.00,WUHU21623XXSP,2013-04-21 16:22:00,
2013-04-21 12:27:00,39.4,19.1,30.64,NNW,328,3.7,8.5,44,0.00,,,0.00,WUHU21623XXSP,2013-04-21 16:27:00,
2013-04-21 12:32:00,39.7,19.4,30.64,NNE,22,5.4,7.2,44,0.00,,,0.00,WUHU21623XXSP,2013-04-21 16:32:00,
2013-04-21 12:37:00,39.5,19.2,30.64,WSW,247,2.9,6.9,44,0.00,,,0.00,WUHU21623XXSP,2013-04-21 16:37:00,
2013-04-21 12:42:00,39.5,19.8,30.64,North,1,3.7,7.6,45,0.00,,,0.00,WUHU21623XXSP,2013-04-21 16:42:00,
2013-04-21 12:47:00,39.7,20.0,30.64,NE,39,5.0,7.8,45,0.00,,,0.00,WUHU21623XXSP,2013-04-21 16:47:00,
2013-04-21 12:52:00,39.9,19.0,30.64,NNW,331,7.2,11.9,43,0.00,,,0.00,WUHU21623XXSP,2013-04-21 16:52:00,
2013-04-21 12:57:00,40.3,19.4,30.64,NW,315,4.3,11.9,43,0.00,,,0.00,WUHU21623XXSP,2013-04-21 16:57:00,
2013-04-21 13:02:00,41.0,20.6,30.63,NNW,337,3.2,6.9,44,0.00,,,0.00,WUHU21623XXSP,2013-04-21 17:02:00,
2013-04-21 13:07:00,41.3,20.9,30.63,NNE,14,4.2,7.2,44,0.00,,,0.00,WUHU21623XXSP,2013-04-21 17:07:00,
2013-04-21 13:12:00,41.5,20.5,30.63,NW,315,7.4,8.1,43,0.00,,,0.00,WUHU21623XXSP,2013-04-21 17:12:00,
2013-04-21 13:17:00,41.5,19.9,30.63,WNW,292,4.0,11.0,42,0.00,,,0.00,WUHU21623XXSP,2013-04-21 17:17:00,
2013-04-21 13:22:00,41.5,19.4,30.63,NNE,25,3.7,11.0,41,0.00,,,0.00,WUHU21623XXSP,2013-04-21 17:22:00,
2013-04-21 13:27:00,41.7,20.7,30.62,NW,315,6.5,6.7,43,0.00,,,0.00,WUHU21623XXSP,2013-04-21 17:27:00,
2013-04-21 13:32:00,42.2,20.6,30.62,North,0,4.3,8.1,42,0.00,,,0.00,WUHU21623XXSP,2013-04-21 17:32:00,
2013-04-21 13:37:00,42.2,20.0,30.62,North,0,7.2,10.5,41,0.00,,,0.00,WUHU21623XXSP,2013-04-21 17:37:00,
2013-04-21 13:42:00,42.1,20.5,30.62,NNE,22,4.0,10.5,42,0.00,,,0.00,WUHU21623XXSP,2013-04-21 17:42:00,
2013-04-21 13:47:00,42.2,20.6,30.62,NNE,22,2.7,6.7,42,0.00,,,0.00,WUHU21623XXSP,2013-04-21 17:47:00,
2013-04-21 13:52:00,42.6,20.9,30.62,NNW,337,5.8,5.8,42,0.00,,,0.00,WUHU21623XXSP,2013-04-21 17:52:00,
2013-04-21 13:57:00,43.1,20.8,30.62,NNW,337,7.2,7.2,41,0.00,,,0.00,WUHU21623XXSP,2013-04-21 17:57:00,
2013-04-21 14:02:00,43.1,20.8,30.62,North,0,4.0,7.2,41,0.00,,,0.00,WUHU21623XXSP,2013-04-21 18:02:00,
2013-04-21 14:07:00,43.1,20.8,30.62,NNW,331,2.4,6.9,41,0.00,,,0.00,WUHU21623XXSP,2013-04-21 18:07:00,
2013-04-21 14:12:00,43.1,20.8,30.62,NNE,12,5.8,8.9,41,0.00,,,0.00,WUHU21623XXSP,2013-04-21 18:12:00,
2013-04-21 14:17:00,43.1,20.2,30.62,North,2,5.7,8.9,40,0.00,,,0.00,WUHU21623XXSP,2013-04-21 18:17:00,
2013-04-21 14:22:00,43.1,20.2,30.63,NNE,15,2.2,7.8,40,0.00,,,0.00,WUHU21623XXSP,2013-04-21 18:22:00,
2013-04-21 14:27:00,42.8,18.7,30.62,NW,323,4.2,7.2,38,0.00,,,0.00,WUHU21623XXSP,2013-04-21 18:27:00,
2013-04-21 14:32:00,42.6,19.8,30.62,West,268,2.7,6.3,40,0.00,,,0.00,WUHU21623XXSP,2013-04-21 18:32:00,
2013-04-21 14:37:00,42.8,19.3,30.62,East,90,2.7,8.5,39,0.00,,,0.00,WUHU21623XXSP,2013-04-21 18:37:00,
2013-04-21 14:42:00,43.0,19.5,30.62,NW,315,6.0,8.5,39,0.00,,,0.00,WUHU21623XXSP,2013-04-21 18:42:00,
2013-04-21 14:46:00,43.1,20.2,30.61,NE,45,6.3,9.6,40,0.00,,,0.00,WUHU21623XXSP,2013-04-21 18:46:00,
2013-04-21 14:51:00,43.3,19.8,30.62,NNW,346,1.5,9.6,39,0.00,,,0.00,WUHU21623XXSP,2013-04-21 18:51:00,
2013-04-21 14:56:00,43.5,20.0,30.61,SE,139,1.7,7.8,39,0.00,,,0.00,WUHU21623XXSP,2013-04-21 18:56:00,
2013-04-21 15:01:00,43.7,20.1,30.61,WSW,255,3.5,5.8,39,0.00,,,0.00,WUHU21623XXSP,2013-04-21 19:01:00,
2013-04-21 15:06:00,44.0,20.4,30.61,SW,236,3.1,5.8,39,0.00,,,0.00,WUHU21623XXSP,2013-04-21 19:06:00,
2013-04-21 15:12:00,44.2,20.6,30.60,WNW,292,3.6,4.3,39,0.00,,,0.00,WUHU21623XXSP,2013-04-21 19:12:00,
2013-04-21 15:17:00,44.6,21.0,30.60,NE,51,4.4,7.2,39,0.00,,,0.00,WUHU21623XXSP,2013-04-21 19:17:00,
2013-04-21 15:22:00,44.2,20.0,30.60,NE,38,3.8,8.3,38,0.00,,,0.00,WUHU21623XXSP,2013-04-21 19:22:00,
2013-04-21 15:27:00,44.0,19.2,30.60,West,270,0.0,8.3,37,0.00,,,0.00,WUHU21623XXSP,2013-04-21 19:27:00,
2013-04-21 15:32:00,44.0,19.8,30.60,East,81,5.3,8.9,38,0.00,,,0.00,WUHU21623XXSP,2013-04-21 19:32:00,
2013-04-21 15:37:00,44.0,19.8,30.60,NE,53,4.6,8.9,38,0.00,,,0.00,WUHU21623XXSP,2013-04-21 19:37:00,
2013-04-21 15:42:00,43.7,19.5,30.60,NNE,22,3.1,8.3,38,0.00,,,0.00,WUHU21623XXSP,2013-04-21 19:42:00,
2013-04-21 15:47:00,43.7,18.9,30.59,North,355,3.9,6.7,37,0.00,,,0.00,WUHU21623XXSP,2013-04-21 19:47:00,
2013-04-21 15:52:00,43.7,19.5,30.59,East,98,1.1,7.2,38,0.00,,,0.00,WUHU21623XXSP,2013-04-21 19:52:00,
2013-04-21 15:57:00,44.0,19.8,30.60,NNE,22,5.4,7.2,38,0.00,,,0.00,WUHU21623XXSP,2013-04-21 19:57:00,
2013-04-21 16:02:00,44.0,19.8,30.59,SE,135,2.2,7.2,38,0.00,,,0.00,WUHU21623XXSP,2013-04-21 20:02:00,
2013-04-21 16:07:00,44.2,19.3,30.59,NW,310,4.9,7.2,37,0.00,,,0.00,WUHU21623XXSP,2013-04-21 20:07:00,
2013-04-21 16:12:00,45.7,21.3,30.59,NE,34,5.0,7.8,38,0.00,,,0.00,WUHU21623XXSP,2013-04-21 20:12:00,
2013-04-21 16:17:00,46.6,21.5,30.59,North,0,4.3,7.8,37,0.00,,,0.00,WUHU21623XXSP,2013-04-21 20:17:00,
2013-04-21 16:22:00,47.1,21.9,30.59,North,0,4.7,7.4,37,0.00,,,0.00,WUHU21623XXSP,2013-04-21 20:22:00,
2013-04-21 16:27:00,47.8,21.9,30.59,North,11,5.0,8.1,36,0.00,,,0.00,WUHU21623XXSP,2013-04-21 20:27:00,
2013-04-21 16:32:00,48.2,20.9,30.59,ESE,104,2.5,9.4,34,0.00,,,0.00,WUHU21623XXSP,2013-04-21 20:32:00,
2013-04-21 16:37:00,48.7,22.0,30.58,NNE,22,1.6,9.4,35,0.00,,,0.00,WUHU21623XXSP,2013-04-21 20:37:00,
2013-04-21 16:42:00,50.0,22.5,30.59,ENE,67,5.1,6.7,34,0.00,,,0.00,WUHU21623XXSP,2013-04-21 20:42:00,
2013-04-21 16:47:00,50.3,20.6,30.58,ENE,67,4.7,10.3,31,0.00,,,0.00,WUHU21623XXSP,2013-04-21 20:47:00,
2013-04-21 16:52:00,49.6,20.7,30.58,ENE,71,3.9,10.3,32,0.00,,,0.00,WUHU21623XXSP,2013-04-21 20:52:00,
2013-04-21 16:57:00,49.4,20.5,30.58,NNE,20,3.6,6.9,32,0.00,,,0.00,WUHU21623XXSP,2013-04-21 20:57:00,
2013-04-21 17:02:00,48.4,19.6,30.58,NNE,22,3.6,6.9,32,0.00,,,0.00,WUHU21623XXSP,2013-04-21 21:02:00,
2013-04-21 17:07:00,47.6,18.9,30.58,NE,45,3.8,6.9,32,0.00,,,0.00,WUHU21623XXSP,2013-04-21 21:07:00,
2013-04-21 17:12:00,46.9,17.6,30.58,NNW,337,4.7,6.0,31,0.00,,,0.00,WUHU21623XXSP,2013-04-21 21:12:00,
2013-04-21 17:17:00,46.7,17.4,30.58,ENE,59,2.8,6.0,31,0.00,,,0.00,WUHU21623XXSP,2013-04-21 21:17:00,
2013-04-21 17:22:00,46.6,18.1,30.58,NE,52,1.4,5.1,32,0.00,,,0.00,WUHU21623XXSP,2013-04-21 21:22:00,
2013-04-21 17:26:00,47.1,19.2,30.57,NE,45,6.0,7.6,33,0.00,,,0.00,WUHU21623XXSP,2013-04-21 21:26:00,
2013-04-21 17:31:00,47.1,17.8,30.58,NE,44,4.4,7.6,31,0.00,,,0.00,WUHU21623XXSP,2013-04-21 21:31:00,
2013-04-21 17:36:00,46.4,17.9,30.57,NNE,22,0.0,6.3,32,0.00,,,0.00,WUHU21623XXSP,2013-04-21 21:36:00,
2013-04-21 17:41:00,46.2,17.7,30.58,North,353,3.2,5.1,32,0.00,,,0.00,WUHU21623XXSP,2013-04-21 21:41:00,
2013-04-21 17:46:00,46.7,18.9,30.58,NW,324,2.6,5.1,33,0.00,,,0.00,WUHU21623XXSP,2013-04-21 21:46:00,
2013-04-21 17:51:00,47.8,20.5,30.57,ESE,109,2.8,5.4,34,0.00,,,0.00,WUHU21623XXSP,2013-04-21 21:51:00,
2013-04-21 17:56:00,47.8,17.6,30.58,NE,45,8.1,9.8,30,0.00,,,0.00,WUHU21623XXSP,2013-04-21 21:56:00,
2013-04-21 18:01:00,47.1,18.5,30.58,NE,45,2.9,9.8,32,0.00,,,0.00,WUHU21623XXSP,2013-04-21 22:01:00,
2013-04-21 18:06:00,46.9,18.3,30.58,ENE,67,4.0,8.5,32,0.00,,,0.00,WUHU21623XXSP,2013-04-21 22:06:00,
2013-04-21 18:11:00,46.7,17.4,30.58,NE,52,4.1,6.5,31,0.00,,,0.00,WUHU21623XXSP,2013-04-21 22:11:00,
2013-04-21 18:16:00,46.4,17.2,30.58,ENE,57,3.5,6.5,31,0.00,,,0.00,WUHU21623XXSP,2013-04-21 22:16:00,
2013-04-21 18:21:00,46.2,17.0,30.58,ENE,67,5.8,7.6,31,0.00,,,0.00,WUHU21623XXSP,2013-04-21 22:21:00,
2013-04-21 18:26:00,45.1,16.0,30.58,NE,54,4.4,8.1,31,0.00,,,0.00,WUHU21623XXSP,2013-04-21 22:26:00,
2013-04-21 18:31:00,44.2,15.2,30.58,NNE,22,3.1,8.1,31,0.00,,,0.00,WUHU21623XXSP,2013-04-21 22:31:00,
2013-04-21 18:36:00,43.7,15.5,30.58,NE,54,4.0,6.5,32,0.00,,,0.00,WUHU21623XXSP,2013-04-21 22:36:00,
2013-04-21 18:41:00,43.3,15.2,30.58,ENE,67,5.4,7.8,32,0.00,,,0.00,WUHU21623XXSP,2013-04-21 22:41:00,
2013-04-21 18:46:00,43.1,16.4,30.58,NE,45,3.6,7.8,34,0.00,,,0.00,WUHU21623XXSP,2013-04-21 22:46:00,
2013-04-21 18:51:00,42.8,16.1,30.58,North,10,2.4,5.1,34,0.00,,,0.00,WUHU21623XXSP,2013-04-21 22:51:00,
2013-04-21 18:57:00,42.2,15.6,30.58,NE,45,3.1,5.4,34,0.00,,,0.00,WUHU21623XXSP,2013-04-21 22:57:00,
2013-04-21 19:02:00,41.9,15.3,30.58,ENE,67,4.5,6.0,34,0.00,,,0.00,WUHU21623XXSP,2013-04-21 23:02:00,
2013-04-21 19:07:00,41.3,14.8,30.58,NE,36,1.7,6.0,34,0.00,,,0.00,WUHU21623XXSP,2013-04-21 23:07:00,
2013-04-21 19:12:00,41.0,15.2,30.58,ENE,67,3.8,5.4,35,0.00,,,0.00,WUHU21623XXSP,2013-04-21 23:12:00,
2013-04-21 19:17:00,40.4,15.3,30.58,NNE,22,4.3,4.7,36,0.00,,,0.00,WUHU21623XXSP,2013-04-21 23:17:00,
2013-04-21 19:22:00,39.9,14.9,30.58,NNE,22,3.4,4.7,36,0.00,,,0.00,WUHU21623XXSP,2013-04-21 23:22:00,
2013-04-21 19:27:00,39.5,15.1,30.58,NNE,22,4.5,4.7,37,0.00,,,0.00,WUHU21623XXSP,2013-04-21 23:27:00,
2013-04-21 19:32:00,39.0,14.7,30.58,NE,49,2.7,5.4,37,0.00,,,0.00,WUHU21623XXSP,2013-04-21 23:32:00,
2013-04-21 19:37:00,38.6,14.9,30.58,ENE,59,2.8,5.4,38,0.00,,,0.00,WUHU21623XXSP,2013-04-21 23:37:00,
2013-04-21 19:42:00,38.1,15.1,30.59,ENE,61,1.7,4.5,39,0.00,,,0.00,WUHU21623XXSP,2013-04-21 23:42:00,
2013-04-21 19:47:00,37.9,14.9,30.59,NE,50,1.1,4.0,39,0.00,,,0.00,WUHU21623XXSP,2013-04-21 23:47:00,
2013-04-21 19:52:00,37.4,15.1,30.59,NE,45,0.0,4.0,40,0.00,,,0.00,WUHU21623XXSP,2013-04-21 23:52:00,
2013-04-21 19:57:00,37.0,14.7,30.59,NE,45,1.0,2.2,40,0.00,,,0.00,WUHU21623XXSP,2013-04-21 23:57:00,
2013-04-21 20:02:00,36.8,15.1,30.59,ENE,67,0.0,2.2,41,0.00,,,0.00,WUHU21623XXSP,2013-04-22 00:02:00,
2013-04-21 20:07:00,36.3,15.2,30.60,ENE,60,1.3,2.7,42,0.00,,,0.00,WUHU21623XXSP,2013-04-22 00:07:00,
2013-04-21 20:12:00,35.9,14.8,30.60,ENE,63,1.1,2.7,42,0.00,,,0.00,WUHU21623XXSP,2013-04-22 00:12:00,
2013-04-21 20:17:00,35.8,15.3,30.59,NE,45,0.0,2.7,43,0.00,,,0.00,WUHU21623XXSP,2013-04-22 00:17:00,
2013-04-21 20:22:00,35.2,15.3,30.59,NE,45,0.0,1.6,44,0.00,,,0.00,WUHU21623XXSP,2013-04-22 00:22:00,
2013-04-21 20:28:00,34.5,16.7,30.59,ENE,67,1.8,1.8,48,0.00,,,0.00,WUHU21623XXSP,2013-04-22 00:28:00,
2013-04-21 20:33:00,33.8,17.1,30.59,ENE,67,1.8,2.9,50,0.00,,,0.00,WUHU21623XXSP,2013-04-22 00:33:00,
2013-04-21 20:38:00,33.4,17.2,30.60,ENE,67,2.5,3.1,51,0.00,,,0.00,WUHU21623XXSP,2013-04-22 00:38:00,
2013-04-21 20:43:00,32.9,17.2,30.60,ENE,67,2.5,4.3,52,0.00,,,0.00,WUHU21623XXSP,2013-04-22 00:43:00,
2013-04-21 20:48:00,32.7,17.4,30.60,NE,56,2.9,4.3,53,0.00,,,0.00,WUHU21623XXSP,2013-04-22 00:48:00,
2013-04-21 20:53:00,32.5,17.7,30.60,ENE,62,2.8,3.8,54,0.00,,,0.00,WUHU21623XXSP,2013-04-22 00:53:00,
2013-04-21 20:58:00,32.3,17.5,30.60,ENE,62,3.1,4.3,54,0.00,,,0.00,WUHU21623XXSP,2013-04-22 00:58:00,
2013-04-21 21:03:00,32.3,17.5,30.60,ENE,65,3.0,4.3,54,0.00,,,0.00,WUHU21623XXSP,2013-04-22 01:03:00,
2013-04-21 21:08:00,32.3,17.5,30.60,ENE,65,2.6,3.6,54,0.00,,,0.00,WUHU21623XXSP,2013-04-22 01:08:00,
2013-04-21 21:13:00,32.2,17.8,30.60,ENE,67,2.2,3.4,55,0.00,,,0.00,WUHU21623XXSP,2013-04-22 01:13:00,
2013-04-21 21:18:00,31.6,17.3,30.60,ENE,67,0.0,3.1,55,0.00,,,0.00,WUHU21623XXSP,2013-04-22 01:18:00,
2013-04-21 21:23:00,31.3,17.4,30.61,ENE,67,0.0,3.1,56,0.00,,,0.00,WUHU21623XXSP,2013-04-22 01:23:00,
2013-04-21 21:28:00,30.9,17.5,30.61,ENE,67,2.2,3.1,57,0.00,,,0.00,WUHU21623XXSP,2013-04-22 01:28:00,
2013-04-21 21:33:00,30.7,17.3,30.61,ENE,67,0.0,3.1,57,0.00,,,0.00,WUHU21623XXSP,2013-04-22 01:33:00,
2013-04-21 21:38:00,30.4,17.4,30.61,ENE,67,0.0,0.4,58,0.00,,,0.00,WUHU21623XXSP,2013-04-22 01:38:00,
2013-04-21 21:43:00,30.2,17.2,30.61,ENE,67,0.0,0.0,58,0.00,,,0.00,WUHU21623XXSP,2013-04-22 01:43:00,
2013-04-21 21:48:00,30.2,18.0,30.61,ENE,67,0.0,0.0,60,0.00,,,0.00,WUHU21623XXSP,2013-04-22 01:48:00,
2013-04-21 21:53:00,29.8,18.4,30.61,ENE,67,0.0,0.0,62,0.00,,,0.00,WUHU21623XXSP,2013-04-22 01:53:00,
2013-04-21 21:58:00,29.8,18.8,30.61,ENE,67,2.4,3.4,63,0.00,,,0.00,WUHU21623XXSP,2013-04-22 01:58:00,
2013-04-21 22:03:00,29.6,18.6,30.61,ENE,67,3.4,3.4,63,0.00,,,0.00,WUHU21623XXSP,2013-04-22 02:03:00,
2013-04-21 22:08:00,29.6,18.6,30.61,ENE,67,0.4,4.0,63,0.00,,,0.00,WUHU21623XXSP,2013-04-22 02:08:00,
2013-04-21 22:13:00,29.3,18.3,30.61,ENE,67,0.0,4.0,63,0.00,,,0.00,WUHU21623XXSP,2013-04-22 02:13:00,
2013-04-21 22:18:00,29.3,18.7,30.62,ENE,67,1.0,1.8,64,0.00,,,0.00,WUHU21623XXSP,2013-04-22 02:18:00,
2013-04-21 22:23:00,29.1,18.5,30.62,ENE,67,0.0,1.8,64,0.00,,,0.00,WUHU21623XXSP,2013-04-22 02:23:00,
2013-04-21 22:28:00,29.1,18.1,30.62,ENE,67,0.0,0.0,63,0.00,,,0.00,WUHU21623XXSP,2013-04-22 02:28:00,
2013-04-21 22:33:00,29.1,18.1,30.61,ENE,67,0.0,0.0,63,0.00,,,0.00,WUHU21623XXSP,2013-04-22 02:33:00,
2013-04-21 22:38:00,29.1,17.8,30.61,SE,135,0.0,0.0,62,0.00,,,0.00,WUHU21623XXSP,2013-04-22 02:38:00,
2013-04-21 22:43:00,29.3,17.9,30.61,ESE,112,0.0,0.0,62,0.00,,,0.00,WUHU21623XXSP,2013-04-22 02:43:00,
2013-04-21 22:48:00,29.3,17.9,30.62,ESE,112,0.0,0.0,62,0.00,,,0.00,WUHU21623XXSP,2013-04-22 02:48:00,
2013-04-21 22:53:00,29.3,17.9,30.61,ESE,112,0.0,0.0,62,0.00,,,0.00,WUHU21623XXSP,2013-04-22 02:53:00,
2013-04-21 22:58:00,29.1,17.8,30.61,ESE,112,0.0,0.0,62,0.00,,,0.00,WUHU21623XXSP,2013-04-22 02:58:00,
2013-04-21 23:03:00,28.9,17.6,30.61,ESE,112,0.0,0.0,62,0.00,,,0.00,WUHU21623XXSP,2013-04-22 03:03:00,
2013-04-21 23:08:00,28.7,17.4,30.61,ESE,112,0.0,0.0,62,0.00,,,0.00,WUHU21623XXSP,2013-04-22 03:08:00,
2013-04-21 23:13:00,28.7,17.4,30.61,ESE,112,0.0,0.0,62,0.00,,,0.00,WUHU21623XXSP,2013-04-22 03:13:00,
2013-04-21 23:18:00,28.6,17.3,30.61,ESE,112,0.0,0.0,62,0.00,,,0.00,WUHU21623XXSP,2013-04-22 03:18:00,
2013-04-21 23:23:00,28.4,17.1,30.61,SE,135,0.0,0.0,62,0.00,,,0.00,WUHU21623XXSP,2013-04-22 03:23:00,
2013-04-21 23:28:00,28.2,16.9,30.61,SE,135,0.0,0.0,62,0.00,,,0.00,WUHU21623XXSP,2013-04-22 03:28:00,
2013-04-21 23:33:00,28.2,16.9,30.61,SE,135,0.0,0.0,62,0.00,,,0.00,WUHU21623XXSP,2013-04-22 03:33:00,
2013-04-21 23:38:00,28.0,17.1,30.61,SE,135,0.0,0.0,63,0.00,,,0.00,WUHU21623XXSP,2013-04-22 03:38:00,
2013-04-21 23:43:00,28.0,17.1,30.61,SE,135,0.0,0.0,63,0.00,,,0.00,WUHU21623XXSP,2013-04-22 03:43:00,
2013-04-21 23:48:00,28.0,17.1,30.61,SE,135,0.0,0.0,63,0.00,,,0.00,WUHU21623XXSP,2013-04-22 03:48:00,
2013-04-21 23:53:00,28.0,17.1,30.61,SE,135,0.0,0.0,63,0.00,,,0.00,WUHU21623XXSP,2013-04-22 03:53:00,
2013-04-21 23:58:00,27.8,16.9,30.61,SE,135,0.0,0.0,63,0.00,,,0.00,WUHU21623XXSP,2013-04-22 03:58:00,